Location: Aulagny
(45.1643°N, 4.3096°E)
Time: 04:27:37
(UTC+00:00)

SJ-11-01 - Pass Details

Date: 21 October 2019
Orbit: 684 x 702 km, 98.0° (Epoch: 14 November)

Event Time Altitude Azimuth Distance (km) Brightness Sun altitude
Exits shadow 18:46:45 48° 59° (ENE) 898 4.5 -21.6°
Drops below altitude 10° 18:51:00 10° 357° (N) 2,146 6.9 -22.3°
Sets 18:53:18 0° 352° (N) 3,064 7.8 -22.7°
